User: anonymous   Login
Location: Unspecified
(0.0000°N, 0.0000°E)
Time: 21:29:47
(UTC+00:00)
Language:

BIRD MM - Orbit

View from above orbital plane
View from above orbital plane
View from above satellite
View from above satellite

Ground track
Ground track

The orbit data is extracted from the following two-line orbital elements,

1 42822U 98067MW  18344.55992653  .00050391  00000-0  29678-3 0  9995
2 42822  51.6315 178.4856 0003790 157.5742 202.5425 15.77672088 81572
Epoch (UTC): 10 December 2018 13:26:17
Eccentricity: 0.0003790
inclination: 51.6315°
perigee height: 334 km
apogee height: 339 km
right ascension of ascending node: 178.4856°
argument of perigee: 157.5742°
revolutions per day: 15.77672088
mean anomaly at epoch: 202.5425°
orbit number at epoch: 8157

The dashed part of the orbit path shows where the satellite is in the earth's shadow,  

DLR